Hourly Data Report for August 31, 2019

TORONTO CITY
ONTARIO
Current Station Operator: ECCC - MSC

43°40'00.000" N
79°24'00.000" W
112.50 m
6158355
71508
XTO

Download Data

Hourly Data (August 2019)
Hourly Data Report for August 31, 2019
TIME
LST
Temp Definition
°C
Dew Point Definition
°C
Rel Hum Definition
%
Precip. Amount Definition
mm

Wind Dir Definition
10's deg

Wind Spd Definition
km/h
Visibility Definition
km
Stn Press Definition
kPa
Hmdx Definition


Wind Chill Definition


Weather Definition


00:00 15.9 6.6 54 0.0       100.81     LegendNANA
01:00 16.6 7.3 54 0.0       100.85     LegendNANA
02:00 16.3 6.7 53 0.0       100.89     LegendNANA
03:00 15.6 6.9 56 0.0       100.94     LegendNANA
04:00 15.1 7.4 60 0.0       101.02     LegendNANA
05:00 14.3 7.5 64 0.0       101.08     LegendNANA
06:00 13.5 7.5 67 0.0       101.16     LegendNANA
07:00 14.4 8.0 65 0.0       101.22     LegendNANA
08:00 16.0 8.7 62 0.0       101.25     LegendNANA
09:00 18.0 9.3 57 0.0       101.29     LegendNANA
10:00 19.1 8.2 49 0.0       101.34     LegendNANA
11:00 19.4 7.3 45 0.0       101.34     LegendNANA
12:00 20.1 7.7 45 0.0       101.30     LegendNANA
13:00 20.0 9.7 51 0.0       101.30     LegendNANA
14:00 20.9 8.6 45 0.0       101.27     LegendNANA
15:00 20.4 9.2 48 0.0       101.25     LegendNANA
16:00 20.6 9.7 50 0.0       101.24     LegendNANA
17:00 20.1 9.0 49 0.0       101.23     LegendNANA
18:00 19.2 9.4 53 0.0       101.24     LegendNANA
19:00 18.7 8.6 52 0.0       101.24     LegendNANA
20:00 17.7 9.4 58 0.0       101.28     LegendNANA
21:00 18.0 8.2 53 0.0       101.29     LegendNANA
22:00 17.7 8.4 54 0.0       101.26     LegendNANA
23:00 17.7 8.6 55 0.0       101.22     LegendNANA

Notes on Data Quality.

Legend

  • E = Estimated
  • M = Missing
  • NA = Not Available*
  • [empty] = Indicates an unobserved value
Date modified: